Tracking 29059 objects as of 19-Jun-2024
HD Live streaming from Space Station
objects crossing your sky now

FALCON 9 R/B

Track FALCON 9 R/B now!


NORAD ID: 57046
Int'l Code: 2023-086B
Perigee: 594.1 km
Apogee: 52,154.4 km
Inclination: 28.9 °
Period: 982.8 minutes
Semi major axis: 32745 km
RCS: Unknown
Launch date: June 18, 2023
Source: United States (US)
Launch site: AIR FORCE EASTERN TEST RANGE (AFETR)

Note: This is a ROCKET BODY
Your satellite tracking list
Your tracking list is empty




NASA's NSSDC Master Catalog

Two Line Element Set (TLE):
1 57046U 23086B   24168.77044084 -.00000298  00000-0  18973-3 0  9997
2 57046  28.8759 359.8198 7872947 297.2199   5.3048  1.46514319  4939
Source of the keplerian elements: AFSPC